Time,TemperatureF,DewpointF,PressureIn,WindDirection,WindDirectionDegrees,WindSpeedMPH,WindSpeedGustMPH,Humidity,HourlyPrecipIn,Conditions,Clouds,dailyrainin,SoftwareType,DateUTC
2013-04-13 00:02:00,49.3,25.3,29.84,WNW,302,3.0,22.0,39,0.00,,,0.82,meteohub,2013-04-13 04:02:00,
2013-04-13 00:07:00,49.3,25.3,29.84,South,190,6.0,15.0,39,0.00,,,0.00,meteohub,2013-04-13 04:07:00,
2013-04-13 00:12:00,48.7,25.5,29.81,SSE,168,2.0,15.0,40,0.00,,,0.00,meteohub,2013-04-13 04:12:00,
2013-04-13 00:17:00,48.6,25.3,29.81,SSW,212,6.0,13.0,40,0.00,,,0.00,meteohub,2013-04-13 04:17:00,
2013-04-13 00:22:00,48.4,25.2,29.81,West,280,10.0,13.0,40,0.00,,,0.00,meteohub,2013-04-13 04:22:00,
2013-04-13 00:27:00,48.4,25.2,29.84,NNE,32,7.0,13.0,40,0.00,,,0.00,meteohub,2013-04-13 04:27:00,
2013-04-13 00:32:00,48.2,25.0,29.84,West,280,4.0,13.0,40,0.00,,,0.00,meteohub,2013-04-13 04:32:00,
2013-04-13 00:37:00,48.0,25.5,29.84,SW,235,6.0,13.0,41,0.00,,,0.00,meteohub,2013-04-13 04:37:00,
2013-04-13 00:42:00,47.7,25.7,29.81,WNW,302,5.0,15.0,42,0.00,,,0.00,meteohub,2013-04-13 04:42:00,
2013-04-13 00:47:00,47.8,25.3,29.81,WSW,258,8.0,15.0,41,0.00,,,0.00,meteohub,2013-04-13 04:47:00,
2013-04-13 00:52:00,48.0,25.5,29.81,NW,325,5.0,15.0,41,0.00,,,0.00,meteohub,2013-04-13 04:52:00,
2013-04-13 00:57:00,48.0,25.5,29.84,WNW,302,5.0,13.0,41,0.00,,,0.00,meteohub,2013-04-13 04:57:00,
2013-04-13 01:07:00,48.0,25.5,29.84,WSW,258,9.0,21.0,41,0.00,,,0.00,meteohub,2013-04-13 05:07:00,
2013-04-13 01:12:00,48.0,25.5,29.81,WSW,258,13.0,21.0,41,0.00,,,0.00,meteohub,2013-04-13 05:12:00,
2013-04-13 01:22:00,48.0,25.5,29.81,SSE,168,7.0,13.0,41,0.00,,,0.00,meteohub,2013-04-13 05:22:00,
2013-04-13 01:32:00,48.0,25.5,29.81,WSW,258,10.0,13.0,41,0.00,,,0.00,meteohub,2013-04-13 05:32:00,
2013-04-13 01:37:00,47.8,25.9,29.81,WNW,302,11.0,14.0,42,0.00,,,0.00,meteohub,2013-04-13 05:37:00,
2013-04-13 01:42:00,47.8,25.9,29.81,ESE,122,6.0,14.0,42,0.00,,,0.00,meteohub,2013-04-13 05:42:00,
2013-04-13 01:52:00,48.0,25.5,29.81,ENE,78,6.0,14.0,41,0.00,,,0.00,meteohub,2013-04-13 05:52:00,
2013-04-13 01:57:00,47.8,25.3,29.81,SSW,212,6.0,14.0,41,0.00,,,0.00,meteohub,2013-04-13 05:57:00,
2013-04-13 02:02:00,47.8,25.9,29.81,ENE,78,3.0,12.0,42,0.00,,,0.00,meteohub,2013-04-13 06:02:00,
2013-04-13 02:07:00,47.8,25.9,29.81,West,280,7.0,12.0,42,0.00,,,0.00,meteohub,2013-04-13 06:07:00,
2013-04-13 02:12:00,47.8,25.9,29.81,West,280,6.0,17.0,42,0.00,,,0.00,meteohub,2013-04-13 06:12:00,
2013-04-13 02:17:00,47.7,25.7,29.81,SSW,212,6.0,17.0,42,0.00,,,0.00,meteohub,2013-04-13 06:17:00,
2013-04-13 02:22:00,47.7,25.7,29.81,SSE,168,7.0,17.0,42,0.00,,,0.00,meteohub,2013-04-13 06:22:00,
2013-04-13 02:27:00,47.7,25.7,29.78,South,190,11.0,11.0,42,0.00,,,0.00,meteohub,2013-04-13 06:27:00,
2013-04-13 02:32:00,47.3,26.1,29.78,WNW,302,9.0,19.0,43,0.00,,,0.00,meteohub,2013-04-13 06:32:00,
2013-04-13 02:42:00,47.8,25.9,29.81,WNW,302,15.0,21.0,42,0.00,,,0.00,meteohub,2013-04-13 06:42:00,
2013-04-13 02:47:00,47.7,25.7,29.81,WNW,302,20.0,25.0,42,0.00,,,0.00,meteohub,2013-04-13 06:47:00,
2013-04-13 02:57:00,47.7,26.2,29.81,WNW,302,16.0,20.0,43,0.00,,,0.00,meteohub,2013-04-13 06:57:00,
2013-04-13 03:02:00,47.7,25.7,29.81,NNE,32,6.0,20.0,42,0.00,,,0.00,meteohub,2013-04-13 07:02:00,
2013-04-13 03:07:00,47.7,26.2,29.81,WNW,302,9.0,26.0,43,0.00,,,0.00,meteohub,2013-04-13 07:07:00,
2013-04-13 03:17:00,47.7,26.2,29.84,WSW,258,6.0,26.0,43,0.00,,,0.00,meteohub,2013-04-13 07:17:00,
2013-04-13 03:27:00,47.3,26.1,29.81,SSW,212,13.0,17.0,43,0.00,,,0.00,meteohub,2013-04-13 07:27:00,
2013-04-13 03:32:00,47.3,26.6,29.81,NNW,348,9.0,17.0,44,0.00,,,0.00,meteohub,2013-04-13 07:32:00,
2013-04-13 03:37:00,47.3,26.6,29.81,SW,235,8.0,17.0,44,0.00,,,0.00,meteohub,2013-04-13 07:37:00,
2013-04-13 03:42:00,47.5,26.1,29.81,SSW,212,7.0,13.0,43,0.00,,,0.00,meteohub,2013-04-13 07:42:00,
2013-04-13 03:47:00,47.3,26.6,29.81,SSW,212,6.0,14.0,44,0.00,,,0.00,meteohub,2013-04-13 07:47:00,
2013-04-13 03:57:00,47.3,26.6,29.81,WSW,258,4.0,17.0,44,0.00,,,0.00,meteohub,2013-04-13 07:57:00,
2013-04-13 04:02:00,47.1,26.4,29.81,ENE,78,5.0,16.0,44,0.00,,,0.00,meteohub,2013-04-13 08:02:00,
2013-04-13 04:12:00,47.1,27.0,29.81,WSW,258,7.0,17.0,45,0.00,,,0.00,meteohub,2013-04-13 08:12:00,
2013-04-13 04:22:00,46.9,26.8,29.81,SE,145,6.0,17.0,45,0.00,,,0.00,meteohub,2013-04-13 08:22:00,
2013-04-13 04:27:00,46.8,27.1,29.81,WSW,258,11.0,19.0,46,0.00,,,0.00,meteohub,2013-04-13 08:27:00,
2013-04-13 04:32:00,46.9,27.3,29.81,WSW,258,6.0,19.0,46,0.00,,,0.00,meteohub,2013-04-13 08:32:00,
2013-04-13 04:42:00,46.9,27.3,29.81,WSW,258,7.0,21.0,46,0.00,,,0.00,meteohub,2013-04-13 08:42:00,
2013-04-13 04:47:00,46.8,27.7,29.81,East,100,5.0,21.0,47,0.00,,,0.00,meteohub,2013-04-13 08:47:00,
2013-04-13 04:57:00,46.6,27.5,29.81,SSE,168,5.0,15.0,47,0.00,,,0.00,meteohub,2013-04-13 08:57:00,
2013-04-13 05:08:00,46.6,27.5,29.81,West,280,9.0,16.0,47,0.00,,,0.00,meteohub,2013-04-13 09:08:00,
2013-04-13 05:17:00,46.4,27.3,29.81,WNW,302,5.0,16.0,47,0.00,,,0.00,meteohub,2013-04-13 09:17:00,
2013-04-13 05:22:00,46.4,27.3,29.81,North,10,3.0,13.0,47,0.00,,,0.00,meteohub,2013-04-13 09:22:00,
2013-04-13 05:27:00,46.4,27.3,29.84,WSW,258,6.0,11.0,47,0.00,,,0.00,meteohub,2013-04-13 09:27:00,
2013-04-13 05:32:00,46.6,27.5,29.84,WSW,258,6.0,14.0,47,0.00,,,0.00,meteohub,2013-04-13 09:32:00,
2013-04-13 05:42:00,46.6,27.5,29.81,NNW,348,7.0,14.0,47,0.00,,,0.00,meteohub,2013-04-13 09:42:00,
2013-04-13 05:47:00,46.6,28.0,29.81,South,190,8.0,14.0,48,0.00,,,0.00,meteohub,2013-04-13 09:47:00,
2013-04-13 05:57:00,46.8,27.7,29.84,SW,235,5.0,15.0,47,0.00,,,0.00,meteohub,2013-04-13 09:57:00,
2013-04-13 06:02:00,46.6,28.0,29.84,West,280,5.0,16.0,48,0.00,,,0.00,meteohub,2013-04-13 10:02:00,
2013-04-13 06:12:00,46.4,27.9,29.84,SSE,168,6.0,16.0,48,0.00,,,0.00,meteohub,2013-04-13 10:12:00,
2013-04-13 06:17:00,46.2,27.7,29.84,SW,235,6.0,22.0,48,0.00,,,0.00,meteohub,2013-04-13 10:17:00,
2013-04-13 06:22:00,46.0,27.5,29.84,North,10,9.0,22.0,48,0.00,,,0.00,meteohub,2013-04-13 10:22:00,
2013-04-13 06:27:00,46.0,27.5,29.84,WNW,302,8.0,22.0,48,0.00,,,0.00,meteohub,2013-04-13 10:27:00,
2013-04-13 06:32:00,45.9,27.3,29.84,WSW,258,9.0,17.0,48,0.00,,,0.00,meteohub,2013-04-13 10:32:00,
2013-04-13 06:42:00,45.7,27.1,29.84,SSW,212,9.0,16.0,48,0.00,,,0.00,meteohub,2013-04-13 10:42:00,
2013-04-13 06:52:00,45.5,27.0,29.84,NNW,348,12.0,12.0,48,0.00,,,0.00,meteohub,2013-04-13 10:52:00,
2013-04-13 06:57:00,45.3,26.8,29.87,West,280,13.0,13.0,48,0.00,,,0.00,meteohub,2013-04-13 10:57:00,
2013-04-13 07:07:00,45.0,26.4,29.87,West,280,10.0,13.0,48,0.00,,,0.00,meteohub,2013-04-13 11:07:00,
2013-04-13 07:17:00,45.0,26.4,29.87,SE,145,4.0,12.0,48,0.00,,,0.00,meteohub,2013-04-13 11:17:00,
2013-04-13 07:22:00,45.0,26.4,29.87,SSW,212,7.0,12.0,48,0.00,,,0.00,meteohub,2013-04-13 11:22:00,
2013-04-13 07:28:00,45.0,26.4,29.87,WSW,258,6.0,12.0,48,0.00,,,0.00,meteohub,2013-04-13 11:28:00,
2013-04-13 07:37:00,44.8,26.4,29.87,WNW,302,17.0,17.0,48,0.00,,,0.00,meteohub,2013-04-13 11:37:00,
2013-04-13 07:42:00,44.8,26.4,29.84,North,10,12.0,17.0,48,0.00,,,0.00,meteohub,2013-04-13 11:42:00,
2013-04-13 07:47:00,45.0,26.4,29.84,SSW,212,6.0,17.0,48,0.00,,,0.00,meteohub,2013-04-13 11:47:00,
2013-04-13 07:52:00,45.0,26.4,29.84,WSW,258,9.0,17.0,48,0.00,,,0.00,meteohub,2013-04-13 11:52:00,
2013-04-13 08:02:00,45.1,26.6,29.87,NNW,348,9.0,16.0,48,0.00,,,0.00,meteohub,2013-04-13 12:02:00,
2013-04-13 08:07:00,45.1,27.1,29.87,South,190,30.0,30.0,49,0.00,,,0.00,meteohub,2013-04-13 12:07:00,
2013-04-13 08:17:00,45.5,27.0,29.87,West,280,4.0,30.0,48,0.00,,,0.00,meteohub,2013-04-13 12:17:00,
2013-04-13 08:27:00,45.7,27.1,29.87,South,190,8.0,21.0,48,0.00,,,0.00,meteohub,2013-04-13 12:27:00,
2013-04-13 08:32:00,45.9,27.9,29.87,SSW,212,14.0,21.0,49,0.00,,,0.00,meteohub,2013-04-13 12:32:00,
2013-04-13 08:42:00,46.2,27.7,29.87,WSW,258,16.0,22.0,48,0.00,,,0.00,meteohub,2013-04-13 12:42:00,
2013-04-13 08:47:00,46.4,27.9,29.87,WSW,258,12.0,22.0,48,0.00,,,0.00,meteohub,2013-04-13 12:47:00,
2013-04-13 08:52:00,46.6,28.0,29.87,NNE,32,6.0,20.0,48,0.00,,,0.00,meteohub,2013-04-13 12:52:00,
2013-04-13 09:02:00,47.1,28.4,29.87,WSW,258,8.0,20.0,48,0.00,,,0.00,meteohub,2013-04-13 13:02:00,
2013-04-13 09:07:00,47.1,28.4,29.87,SW,235,5.0,20.0,48,0.00,,,0.00,meteohub,2013-04-13 13:07:00,
2013-04-13 09:12:00,47.3,28.6,29.87,NW,325,7.0,17.0,48,0.00,,,0.00,meteohub,2013-04-13 13:12:00,
2013-04-13 09:22:00,48.0,28.8,29.87,WSW,258,8.0,21.0,47,0.00,,,0.00,meteohub,2013-04-13 13:22:00,
2013-04-13 09:27:00,48.2,28.9,29.90,SSW,212,5.0,16.0,47,0.00,,,0.00,meteohub,2013-04-13 13:27:00,
2013-04-13 09:37:00,48.4,29.1,29.90,NE,55,5.0,17.0,47,0.00,,,0.00,meteohub,2013-04-13 13:37:00,
2013-04-13 09:42:00,48.7,29.5,29.90,NNW,348,15.0,18.0,47,0.00,,,0.00,meteohub,2013-04-13 13:42:00,
2013-04-13 09:47:00,48.7,28.9,29.90,West,280,8.0,18.0,46,0.00,,,0.00,meteohub,2013-04-13 13:47:00,
2013-04-13 09:57:00,48.7,28.4,29.90,NW,325,14.0,17.0,45,0.00,,,0.00,meteohub,2013-04-13 13:57:00,
2013-04-13 10:07:00,48.7,28.4,29.90,NNW,348,10.0,31.0,45,0.00,,,0.00,meteohub,2013-04-13 14:07:00,
2013-04-13 10:12:00,49.3,28.9,29.90,SW,235,25.0,31.0,45,0.00,,,0.00,meteohub,2013-04-13 14:12:00,
2013-04-13 10:17:00,49.6,29.1,29.90,NE,55,5.0,31.0,45,0.00,,,0.00,meteohub,2013-04-13 14:17:00,
2013-04-13 10:27:00,50.0,29.5,29.90,SSW,212,11.0,25.0,45,0.00,,,0.00,meteohub,2013-04-13 14:27:00,
2013-04-13 10:32:00,50.2,29.7,29.90,SSW,212,12.0,17.0,45,0.00,,,0.00,meteohub,2013-04-13 14:32:00,
2013-04-13 10:37:00,49.5,27.9,29.90,NNW,348,13.0,21.0,43,0.00,,,0.00,meteohub,2013-04-13 14:37:00,
2013-04-13 10:47:00,50.2,29.1,29.90,SW,235,6.0,26.0,44,0.00,,,0.00,meteohub,2013-04-13 14:47:00,
2013-04-13 10:52:00,51.3,30.2,29.90,SSW,212,4.0,26.0,44,0.00,,,0.00,meteohub,2013-04-13 14:52:00,
2013-04-13 11:02:00,51.3,28.9,29.93,NNW,348,3.0,17.0,42,0.00,,,0.00,meteohub,2013-04-13 15:02:00,
2013-04-13 11:07:00,52.3,30.6,29.93,North,10,10.0,19.0,43,0.00,,,0.00,meteohub,2013-04-13 15:07:00,
2013-04-13 11:12:00,52.0,29.7,29.93,SSW,212,13.0,19.0,42,0.00,,,0.00,meteohub,2013-04-13 15:12:00,
2013-04-13 11:17:00,52.2,29.3,29.93,NNW,348,7.0,34.0,41,0.00,,,0.00,meteohub,2013-04-13 15:17:00,
2013-04-13 11:22:00,51.6,28.8,29.93,NW,325,15.0,34.0,41,0.00,,,0.00,meteohub,2013-04-13 15:22:00,
2013-04-13 11:32:00,52.5,28.9,29.93,WNW,302,21.0,34.0,40,0.00,,,0.00,meteohub,2013-04-13 15:32:00,
2013-04-13 11:37:00,53.1,29.5,29.93,WNW,302,20.0,21.0,40,0.00,,,0.00,meteohub,2013-04-13 15:37:00,
2013-04-13 11:42:00,52.9,29.3,29.93,WNW,302,8.0,21.0,40,0.00,,,0.00,meteohub,2013-04-13 15:42:00,
2013-04-13 11:52:00,53.6,29.3,29.93,NNW,348,21.0,27.0,39,0.00,,,0.00,meteohub,2013-04-13 15:52:00,
2013-04-13 12:02:00,53.8,29.5,29.90,WNW,302,7.0,26.0,39,0.00,,,0.00,meteohub,2013-04-13 16:02:00,
2013-04-13 12:07:00,54.0,29.7,29.90,NNW,348,12.0,26.0,39,0.00,,,0.00,meteohub,2013-04-13 16:07:00,
2013-04-13 12:12:00,54.7,30.2,29.90,NNW,348,10.0,26.0,39,0.00,,,0.00,meteohub,2013-04-13 16:12:00,
2013-04-13 12:22:00,55.2,30.7,29.90,WSW,258,9.0,31.0,39,0.00,,,0.00,meteohub,2013-04-13 16:22:00,
2013-04-13 12:27:00,55.6,30.4,29.90,NNW,348,9.0,31.0,38,0.00,,,0.00,meteohub,2013-04-13 16:27:00,
2013-04-13 12:32:00,55.4,30.2,29.90,WSW,258,16.0,31.0,38,0.00,,,0.00,meteohub,2013-04-13 16:32:00,
2013-04-13 12:37:00,55.9,30.7,29.90,NW,325,11.0,22.0,38,0.00,,,0.00,meteohub,2013-04-13 16:37:00,
2013-04-13 12:42:00,56.1,30.9,29.90,NNW,348,8.0,22.0,38,0.00,,,0.00,meteohub,2013-04-13 16:42:00,
2013-04-13 12:52:00,57.0,31.1,29.90,West,280,8.0,20.0,37,0.00,,,0.00,meteohub,2013-04-13 16:52:00,
2013-04-13 12:57:00,57.6,31.5,29.87,NE,55,9.0,35.0,37,0.00,,,0.00,meteohub,2013-04-13 16:57:00,
2013-04-13 13:07:00,57.7,30.9,29.87,SSW,212,20.0,35.0,36,0.00,,,0.00,meteohub,2013-04-13 17:07:00,
2013-04-13 13:17:00,59.2,32.4,29.87,WSW,258,8.0,29.0,36,0.00,,,0.00,meteohub,2013-04-13 17:17:00,
2013-04-13 13:22:00,59.0,31.5,29.87,NNW,348,20.0,29.0,35,0.00,,,0.00,meteohub,2013-04-13 17:22:00,
2013-04-13 13:27:00,59.0,31.5,29.84,NW,325,13.0,21.0,35,0.00,,,0.00,meteohub,2013-04-13 17:27:00,
2013-04-13 13:37:00,60.3,32.5,29.84,WSW,258,15.0,21.0,35,0.00,,,0.00,meteohub,2013-04-13 17:37:00,
2013-04-13 13:47:00,61.3,32.7,29.87,NNW,348,10.0,28.0,34,0.00,,,0.00,meteohub,2013-04-13 17:47:00,
2013-04-13 13:52:00,61.0,32.5,29.87,NNW,348,26.0,28.0,34,0.00,,,0.00,meteohub,2013-04-13 17:52:00,
2013-04-13 14:02:00,62.6,33.1,29.87,SE,145,7.0,31.0,33,0.00,,,0.00,meteohub,2013-04-13 18:02:00,
2013-04-13 14:07:00,62.2,32.0,29.87,NNW,348,7.0,31.0,32,0.00,,,0.00,meteohub,2013-04-13 18:07:00,
2013-04-13 14:12:00,62.2,29.7,29.87,NNW,348,4.0,31.0,29,0.00,,,0.00,meteohub,2013-04-13 18:12:00,
2013-04-13 14:22:00,63.1,29.5,29.87,NNW,348,16.0,26.0,28,0.00,,,0.00,meteohub,2013-04-13 18:22:00,
2013-04-13 14:27:00,63.3,30.6,29.84,WSW,258,19.0,21.0,29,0.00,,,0.00,meteohub,2013-04-13 18:27:00,
2013-04-13 14:37:00,64.0,30.4,29.84,NNW,348,21.0,30.0,28,0.00,,,0.00,meteohub,2013-04-13 18:37:00,
2013-04-13 14:42:00,64.0,30.4,29.84,North,10,20.0,30.0,28,0.00,,,0.00,meteohub,2013-04-13 18:42:00,
2013-04-13 14:47:00,64.4,29.7,29.87,WSW,258,10.0,26.0,27,0.00,,,0.00,meteohub,2013-04-13 18:47:00,
2013-04-13 14:52:00,64.4,29.7,29.87,NNW,348,8.0,26.0,27,0.00,,,0.00,meteohub,2013-04-13 18:52:00,
2013-04-13 14:57:00,64.8,30.0,29.87,NW,325,24.0,26.0,27,0.00,,,0.00,meteohub,2013-04-13 18:57:00,
2013-04-13 15:07:00,64.2,28.6,29.87,North,10,13.0,24.0,26,0.00,,,0.00,meteohub,2013-04-13 19:07:00,
2013-04-13 15:12:00,64.4,28.8,29.87,WNW,302,20.0,31.0,26,0.00,,,0.00,meteohub,2013-04-13 19:12:00,
2013-04-13 15:22:00,64.8,29.1,29.87,North,10,9.0,31.0,26,0.00,,,0.00,meteohub,2013-04-13 19:22:00,
2013-04-13 15:27:00,64.8,28.2,29.87,WNW,302,15.0,28.0,25,0.00,,,0.00,meteohub,2013-04-13 19:27:00,
2013-04-13 15:32:00,64.2,27.7,29.87,NNE,32,16.0,32.0,25,0.00,,,0.00,meteohub,2013-04-13 19:32:00,
2013-04-13 15:37:00,64.9,28.4,29.87,SW,235,8.0,32.0,25,0.00,,,0.00,meteohub,2013-04-13 19:37:00,
2013-04-13 15:42:00,64.9,28.4,29.87,ENE,78,6.0,32.0,25,0.00,,,0.00,meteohub,2013-04-13 19:42:00,
2013-04-13 15:47:00,64.8,28.2,29.87,SSW,212,7.0,33.0,25,0.00,,,0.00,meteohub,2013-04-13 19:47:00,
2013-04-13 15:57:00,64.9,27.3,29.87,NW,325,9.0,33.0,24,0.00,,,0.00,meteohub,2013-04-13 19:57:00,
2013-04-13 16:02:00,65.1,28.4,29.87,NNW,348,17.0,26.0,25,0.00,,,0.00,meteohub,2013-04-13 20:02:00,
2013-04-13 16:07:00,65.5,28.8,29.87,NNW,348,16.0,22.0,25,0.00,,,0.00,meteohub,2013-04-13 20:07:00,
2013-04-13 16:12:00,65.1,28.4,29.87,West,280,13.0,29.0,25,0.00,,,0.00,meteohub,2013-04-13 20:12:00,
2013-04-13 16:17:00,65.5,28.8,29.87,NNW,348,21.0,31.0,25,0.00,,,0.00,meteohub,2013-04-13 20:17:00,
2013-04-13 16:22:00,64.9,27.3,29.87,NNW,348,17.0,31.0,24,0.00,,,0.00,meteohub,2013-04-13 20:22:00,
2013-04-13 16:27:00,64.8,27.1,29.87,West,280,21.0,31.0,24,0.00,,,0.00,meteohub,2013-04-13 20:27:00,
2013-04-13 16:32:00,65.5,27.9,29.87,SSE,168,31.0,31.0,24,0.00,,,0.00,meteohub,2013-04-13 20:32:00,
2013-04-13 16:42:00,64.9,27.3,29.87,NW,325,11.0,54.0,24,0.00,,,0.00,meteohub,2013-04-13 20:42:00,
2013-04-13 16:52:00,64.2,26.8,29.87,North,10,12.0,54.0,24,0.00,,,0.00,meteohub,2013-04-13 20:52:00,
2013-04-13 16:57:00,64.8,27.1,29.84,SSW,212,12.0,41.0,24,0.00,,,0.00,meteohub,2013-04-13 20:57:00,
2013-04-13 17:02:00,65.3,27.7,29.84,NW,325,14.0,39.0,24,0.00,,,0.00,meteohub,2013-04-13 21:02:00,
2013-04-13 17:07:00,64.9,27.3,29.84,SW,235,12.0,30.0,24,0.00,,,0.00,meteohub,2013-04-13 21:07:00,
2013-04-13 17:12:00,64.8,26.2,29.87,SSE,168,19.0,24.0,23,0.00,,,0.00,meteohub,2013-04-13 21:12:00,
2013-04-13 17:22:00,65.1,26.4,29.87,SSW,212,34.0,34.0,23,0.00,,,0.00,meteohub,2013-04-13 21:22:00,
2013-04-13 17:32:00,64.8,26.2,29.87,NNW,348,13.0,34.0,23,0.00,,,0.00,meteohub,2013-04-13 21:32:00,
2013-04-13 17:37:00,65.1,26.4,29.87,NW,325,15.0,34.0,23,0.00,,,0.00,meteohub,2013-04-13 21:37:00,
2013-04-13 17:47:00,64.4,25.9,29.90,NNW,348,12.0,26.0,23,0.00,,,0.00,meteohub,2013-04-13 21:47:00,
2013-04-13 17:52:00,64.0,25.5,29.90,WNW,302,9.0,26.0,23,0.00,,,0.00,meteohub,2013-04-13 21:52:00,
2013-04-13 17:57:00,64.2,25.7,29.87,West,280,8.0,32.0,23,0.00,,,0.00,meteohub,2013-04-13 21:57:00,
2013-04-13 18:02:00,63.9,25.3,29.87,NW,325,7.0,32.0,23,0.00,,,0.00,meteohub,2013-04-13 22:02:00,
2013-04-13 18:12:00,63.5,25.2,29.90,NNE,32,13.0,35.0,23,0.00,,,0.00,meteohub,2013-04-13 22:12:00,
2013-04-13 18:22:00,63.3,25.0,29.90,West,280,15.0,30.0,23,0.00,,,0.00,meteohub,2013-04-13 22:22:00,
2013-04-13 18:27:00,63.3,25.0,29.87,West,280,15.0,26.0,23,0.00,,,0.00,meteohub,2013-04-13 22:27:00,
2013-04-13 18:32:00,63.5,25.2,29.87,West,280,20.0,26.0,23,0.00,,,0.00,meteohub,2013-04-13 22:32:00,
2013-04-13 18:37:00,63.0,24.6,29.87,North,10,7.0,26.0,23,0.00,,,0.00,meteohub,2013-04-13 22:37:00,
2013-04-13 18:47:00,62.8,24.4,29.87,WNW,302,16.0,27.0,23,0.00,,,0.00,meteohub,2013-04-13 22:47:00,
2013-04-13 18:52:00,62.6,24.3,29.87,SSW,212,12.0,28.0,23,0.00,,,0.00,meteohub,2013-04-13 22:52:00,
2013-04-13 18:57:00,62.2,25.0,29.87,NW,325,13.0,34.0,24,0.00,,,0.00,meteohub,2013-04-13 22:57:00,
2013-04-13 19:02:00,62.1,25.0,29.87,NNW,348,13.0,34.0,24,0.00,,,0.00,meteohub,2013-04-13 23:02:00,
2013-04-13 19:07:00,62.1,25.0,29.87,WSW,258,7.0,34.0,24,0.00,,,0.00,meteohub,2013-04-13 23:07:00,
2013-04-13 19:12:00,61.7,24.6,29.87,WNW,302,7.0,21.0,24,0.00,,,0.00,meteohub,2013-04-13 23:12:00,
2013-04-13 19:17:00,61.3,24.3,29.87,West,280,13.0,22.0,24,0.00,,,0.00,meteohub,2013-04-13 23:17:00,
2013-04-13 19:22:00,61.3,24.3,29.87,WSW,258,7.0,22.0,24,0.00,,,0.00,meteohub,2013-04-13 23:22:00,
2013-04-13 19:27:00,61.2,24.1,29.84,WSW,258,13.0,22.0,24,0.00,,,0.00,meteohub,2013-04-13 23:27:00,
2013-04-13 19:32:00,61.0,24.1,29.84,NNW,348,21.0,25.0,24,0.00,,,0.00,meteohub,2013-04-13 23:32:00,
2013-04-13 19:37:00,60.6,23.7,29.84,North,10,8.0,25.0,24,0.00,,,0.00,meteohub,2013-04-13 23:37:00,
2013-04-13 19:42:00,60.3,23.4,29.84,SSE,168,5.0,25.0,24,0.00,,,0.00,meteohub,2013-04-13 23:42:00,
2013-04-13 19:47:00,59.9,23.0,29.84,WSW,258,6.0,21.0,24,0.00,,,0.00,meteohub,2013-04-13 23:47:00,
2013-04-13 19:52:00,59.9,23.0,29.84,SSW,212,3.0,17.0,24,0.00,,,0.00,meteohub,2013-04-13 23:52:00,
2013-04-13 19:57:00,59.2,22.5,29.87,SSW,212,3.0,15.0,24,0.00,,,0.00,meteohub,2013-04-13 23:57:00,
2013-04-13 20:02:00,59.5,22.8,29.87,WNW,302,5.0,11.0,24,0.00,,,0.00,meteohub,2013-04-14 00:02:00,
2013-04-13 20:07:00,59.0,22.3,29.87,South,190,5.0,25.0,24,0.00,,,0.00,meteohub,2013-04-14 00:07:00,
2013-04-13 20:12:00,59.0,22.3,29.87,West,280,3.0,25.0,24,0.00,,,0.00,meteohub,2013-04-14 00:12:00,
2013-04-13 20:17:00,58.8,23.2,29.87,WSW,258,12.0,12.0,25,0.00,,,0.00,meteohub,2013-04-14 00:17:00,
2013-04-13 20:22:00,58.6,23.0,29.87,WNW,302,7.0,17.0,25,0.00,,,0.00,meteohub,2013-04-14 00:22:00,
2013-04-13 20:27:00,58.5,22.8,29.87,WNW,302,3.0,17.0,25,0.00,,,0.00,meteohub,2013-04-14 00:27:00,
2013-04-13 20:47:00,57.6,22.1,29.87,SSW,212,5.0,21.0,25,0.00,,,0.00,meteohub,2013-04-14 00:47:00,
2013-04-13 20:52:00,57.6,22.1,29.87,WSW,258,4.0,21.0,25,0.00,,,0.00,meteohub,2013-04-14 00:52:00,
2013-04-13 20:57:00,57.9,22.5,29.90,SSW,212,4.0,17.0,25,0.00,,,0.00,meteohub,2013-04-14 00:57:00,
2013-04-13 21:02:00,57.4,21.9,29.90,East,100,6.0,16.0,25,0.00,,,0.00,meteohub,2013-04-14 01:02:00,
2013-04-13 21:07:00,57.4,21.9,29.90,NW,325,15.0,16.0,25,0.00,,,0.00,meteohub,2013-04-14 01:07:00,
2013-04-13 21:12:00,57.0,21.6,29.90,West,280,8.0,17.0,25,0.00,,,0.00,meteohub,2013-04-14 01:12:00,
2013-04-13 21:17:00,57.2,20.8,29.90,WSW,258,3.0,17.0,24,0.00,,,0.00,meteohub,2013-04-14 01:17:00,
2013-04-13 21:22:00,56.8,21.4,29.90,WSW,258,7.0,17.0,25,0.00,,,0.00,meteohub,2013-04-14 01:22:00,
2013-04-13 21:32:00,56.5,21.2,29.93,ESE,122,5.0,11.0,25,0.00,,,0.00,meteohub,2013-04-14 01:32:00,
2013-04-13 21:37:00,56.3,21.0,29.93,ESE,122,5.0,21.0,25,0.00,,,0.00,meteohub,2013-04-14 01:37:00,
2013-04-13 21:42:00,56.3,21.0,29.93,South,190,15.0,21.0,25,0.00,,,0.00,meteohub,2013-04-14 01:42:00,
2013-04-13 21:52:00,56.1,20.8,29.93,SSW,212,17.0,20.0,25,0.00,,,0.00,meteohub,2013-04-14 01:52:00,
2013-04-13 22:02:00,55.8,20.5,29.93,WSW,258,3.0,29.0,25,0.00,,,0.00,meteohub,2013-04-14 02:02:00,
2013-04-13 22:07:00,55.8,20.5,29.93,NNW,348,15.0,29.0,25,0.00,,,0.00,meteohub,2013-04-14 02:07:00,
2013-04-13 22:17:00,54.9,20.7,29.93,East,100,3.0,15.0,26,0.00,,,0.00,meteohub,2013-04-14 02:17:00,
2013-04-13 22:22:00,54.7,20.5,29.93,WSW,258,4.0,15.0,26,0.00,,,0.00,meteohub,2013-04-14 02:22:00,
2013-04-13 22:32:00,54.3,20.3,29.90,SSW,212,4.0,11.0,26,0.00,,,0.00,meteohub,2013-04-14 02:32:00,
2013-04-13 22:37:00,54.1,20.1,29.90,SW,235,5.0,13.0,26,0.00,,,0.00,meteohub,2013-04-14 02:37:00,
2013-04-13 22:42:00,53.6,19.6,29.93,SSW,212,5.0,13.0,26,0.00,,,0.00,meteohub,2013-04-14 02:42:00,
2013-04-13 22:52:00,53.6,19.6,29.93,NW,325,3.0,15.0,26,0.00,,,0.00,meteohub,2013-04-14 02:52:00,
2013-04-13 22:57:00,53.4,19.4,29.93,NNW,348,0.0,15.0,26,0.00,,,0.00,meteohub,2013-04-14 02:57:00,
2013-04-13 23:02:00,52.7,18.9,29.93,SE,145,2.0,9.0,26,0.00,,,0.00,meteohub,2013-04-14 03:02:00,
2013-04-13 23:07:00,52.3,18.5,29.93,SSW,212,9.0,9.0,26,0.00,,,0.00,meteohub,2013-04-14 03:07:00,
2013-04-13 23:12:00,52.3,18.5,29.93,West,280,3.0,9.0,26,0.00,,,0.00,meteohub,2013-04-14 03:12:00,
2013-04-13 23:17:00,52.0,19.0,29.93,North,10,4.0,9.0,27,0.00,,,0.00,meteohub,2013-04-14 03:17:00,
2013-04-13 23:22:00,51.3,18.5,29.93,ESE,122,3.0,9.0,27,0.00,,,0.00,meteohub,2013-04-14 03:22:00,
2013-04-13 23:27:00,51.3,18.5,29.96,SSE,168,5.0,8.0,27,0.00,,,0.00,meteohub,2013-04-14 03:27:00,
2013-04-13 23:37:00,50.2,17.6,29.96,ESE,122,4.0,7.0,27,0.00,,,0.00,meteohub,2013-04-14 03:37:00,
2013-04-13 23:42:00,50.2,17.6,29.96,NE,55,2.0,7.0,27,0.00,,,0.00,meteohub,2013-04-14 03:42:00,
2013-04-13 23:47:00,50.2,17.6,29.96,NNW,348,6.0,7.0,27,0.00,,,0.00,meteohub,2013-04-14 03:47:00,
2013-04-13 23:57:00,49.8,18.1,29.96,ESE,122,5.0,6.0,28,0.00,,,0.00,meteohub,2013-04-14 03:57:00,